GW1542 Weather Reports


time (UTC)temp
C
wind
direction
speed
KPH
gust
KPH
rain 1hr
cm
rain 24hr
cm
rain mn
cm
humidity
%
barometer
mb
20260503204242 11 235 1.6 3.2 0.00 0.00 0.00 32 1016.2
20260503203038 10 265 8.0 9.7 0.00 0.00 0.00 33 1016.5
20260503202422 10 243 6.4 9.7 0.00 0.00 0.00 32 1016.5
20260503201816 10 188 9.7 12.9 0.00 0.00 0.00 34 1016.5
20260503201234 10 166 9.7 11.3 0.00 0.00 0.00 35 1016.5
20260503200625 11 215 6.4 9.7 0.00 0.00 0.00 33 1016.5
20260503200026 10 227 8.0 11.3 0.00 0.00 0.00 35 1016.5
20260503195409 10 244 1.6 3.2 0.00 0.00 0.00 34 1016.9
20260503194821 10 273 14.5 19.3 0.00 0.00 0.00 34 1016.9
20260503194241 10 234 9.7 11.3 0.00 0.00 0.00 35 1017.2
20260503193621 10 288 14.5 16.1 0.00 0.00 0.00 33 1016.9
20260503193043 10 240 8.0 9.7 0.00 0.00 0.00 37 1016.9
20260503192436 10 294 9.7 12.9 0.00 0.00 0.00 36 1017.2
20260503191842 10 210 8.0 11.3 0.00 0.00 0.00 39 1017.6
20260503191249 10 281 9.7 14.5 0.00 0.00 0.00 34 1017.2
20260503190636 10 272 4.8 6.4 0.00 0.00 0.00 39 1017.2
20260503190052 10 241 9.7 12.9 0.00 0.00 0.00 42 1017.2
20260503185423 10 127 4.8 4.8 0.00 0.00 0.00 40 1017.6
20260503184846 10 298 4.8 6.4 0.00 0.00 0.00 41 1017.2
20260503184216 9 268 8.0 12.9 0.00 0.00 0.00 41 1017.6
20260503183031 10 222 4.8 6.4 0.00 0.00 0.00 40 1017.2
20260503182446 9 275 6.4 9.7 0.00 0.00 0.00 38 1017.6
20260503181853 10 231 9.7 12.9 0.00 0.00 0.00 38 1017.6
20260503181236 10 236 3.2 3.2 0.00 0.00 0.00 37 1017.9
20260503180651 9 306 6.4 9.7 0.00 0.00 0.00 38 1017.9
20260503180027 8 318 6.4 6.4 0.00 0.00 0.00 41 1017.6
20260503175417 10 298 6.4 9.7 0.00 0.00 0.00 38 1017.9
20260503174820 9 181 3.2 3.2 0.00 0.00 0.00 44 1017.6
20260503174213 8 194 4.8 6.4 0.00 0.00 0.00 43 1017.6
20260503173628 8 271 8.0 11.3 0.00 0.00 0.00 49 1017.6
20260503173035 8 300 6.4 11.3 0.00 0.00 0.00 44 1017.9
20260503172413 8 242 11.3 14.5 0.00 0.00 0.00 43 1017.9
20260503171814 8 216 3.2 3.2 0.00 0.00 0.00 39 1017.9
20260503171254 8 221 1.6 1.6 0.00 0.00 0.00 45 1017.9
20260503150630 5 259 4.8 6.4 0.00 0.00 0.00 51 1018.9
20260503130620 2 257 9.7 11.3 0.00 0.00 0.00 74 1018.6
20260503110645 0 219 1.6 3.2 0.00 0.00 0.00 84 1017.6
20260503081246 0 237 0.0 1.6 0.00 0.00 0.00 82 1015.9
20260503072411 0 245 0.0 0.0 0.00 0.00 0.00 82 1015.2
20260503071838 0 228 1.6 3.2 0.00 0.00 0.00 82 1015.5
20260503071227 0 208 1.6 1.6 0.00 0.00 0.00 82 1015.2
20260503070623 0 218 3.2 3.2 0.00 0.00 0.00 82 1015.2
20260503054237 0 201 1.6 1.6 0.00 0.00 0.00 81 1015.5
20260503053623 0 234 0.0 0.0 0.00 0.00 0.00 82 1015.5
20260503053051 0 206 0.0 0.0 0.00 0.00 0.00 81 1015.2
20260503052424 0 243 0.0 0.0 0.00 0.00 0.00 80 1015.2
20260503051854 1 206 0.0 1.6 0.00 0.00 0.00 78 1015.2
20260503051244 1 198 0.0 1.6 0.00 0.00 0.00 77 1015.2
20260503050649 1 83 4.8 4.8 0.00 0.00 0.00 77 1015.2
20260503050053 1 303 1.6 1.6 0.00 0.00 0.00 78 1015.2
20260503045418 1 131 1.6 3.2 0.00 0.00 0.00 78 1015.5
20260503044845 1 138 4.8 6.4 0.00 0.00 0.00 78 1015.5
20260503044242 1 136 3.2 4.8 0.00 0.00 0.00 78 1015.5
20260503043639 1 221 0.0 1.6 0.00 0.00 0.00 78 1015.5
20260503043016 1 55 3.2 3.2 0.00 0.00 0.00 78 1015.5
20260503042443 1 225 0.0 0.0 0.00 0.00 0.00 78 1015.5
20260503041823 2 266 1.6 1.6 0.00 0.00 0.00 78 1015.5
20260503040623 2 164 1.6 3.2 0.00 0.00 0.00 79 1015.5
20260503040047 2 156 3.2 4.8 0.00 0.00 0.00 78 1015.5
20260503035451 2 235 0.0 0.0 0.00 0.00 0.00 78 1015.5
20260503034851 2 53 4.8 4.8 0.00 0.00 0.00 78 1015.2
20260503034216 2 177 1.6 3.2 0.00 0.00 0.00 79 1015.5
20260503033638 2 229 1.6 1.6 0.00 0.00 0.00 79 1015.5
20260503032419 2 118 1.6 1.6 0.00 0.00 0.00 79 1015.5
20260503031839 2 303 3.2 3.2 0.00 0.00 0.00 78 1015.5
20260503031244 2 73 1.6 3.2 0.00 0.00 0.00 77 1015.5
20260503030642 2 82 3.2 4.8 0.00 0.00 0.00 75 1015.5
20260503030024 2 180 1.6 1.6 0.00 0.00 0.00 74 1015.2
20260503025424 2 223 0.0 0.0 0.00 0.00 0.00 72 1015.5
20260503024829 2 213 0.0 1.6 0.00 0.00 0.00 72 1015.5
20260503024233 2 222 0.0 0.0 0.00 0.00 0.00 73 1015.5
20260503023618 2 186 1.6 1.6 0.00 0.00 0.00 71 1015.5
20260503023036 2 139 3.2 4.8 0.00 0.00 0.00 70 1015.5
20260503022452 2 144 4.8 4.8 0.00 0.00 0.00 70 1015.2
20260503021852 2 290 0.0 1.6 0.00 0.00 0.00 71 1015.9
20260503021241 2 142 4.8 4.8 0.00 0.00 0.00 72 1015.5
20260503020644 2 131 3.2 3.2 0.00 0.00 0.00 71 1015.2
20260503020048 3 165 1.6 1.6 0.00 0.00 0.00 69 1015.5
20260503014817 3 76 6.4 6.4 0.00 0.00 0.00 69 1015.5
20260503014252 3 107 3.2 6.4 0.00 0.00 0.00 68 1015.5
20260503013627 3 76 4.8 4.8 0.00 0.00 0.00 67 1015.5
20260503013014 3 124 3.2 3.2 0.00 0.00 0.00 68 1015.5
20260503011811 3 83 4.8 4.8 0.00 0.00 0.00 67 1015.5
20260503011231 3 210 0.0 0.0 0.00 0.00 0.00 64 1014.9
20260503010623 3 336 1.6 3.2 0.00 0.00 0.00 63 1015.2
20260503010028 3 203 1.6 1.6 0.00 0.00 0.00 64 1015.2
20260503005414 3 175 1.6 1.6 0.00 0.00 0.00 63 1014.9
20260503004843 3 20 1.6 1.6 0.00 0.00 0.00 60 1014.9
20260503004211 4 162 1.6 1.6 0.00 0.00 0.00 57 1014.9
20260503003641 4 78 4.8 6.4 0.00 0.00 0.00 58 1014.9
20260503003018 4 85 9.7 11.3 0.00 0.00 0.00 56 1014.9
20260503001815 5 245 1.6 1.6 0.00 0.00 0.00 52 1014.9
20260503001232 5 201 4.8 6.4 0.00 0.00 0.00 51 1014.5
20260503000048 5 230 3.2 3.2 0.00 0.00 0.00 50 1014.2
20260502235410 5 255 3.2 4.8 0.00 0.00 0.00 51 1014.2
20260502234841 5 247 1.6 1.6 0.00 0.00 0.00 49 1014.2
20260502234245 5 207 6.4 6.4 0.00 0.00 0.00 50 1014.2
20260502233641 5 235 12.9 14.5 0.00 0.00 0.00 50 1014.2
20260502232429 5 222 3.2 3.2 0.00 0.00 0.00 50 1014.2
20260502231840 5 237 6.4 6.4 0.00 0.00 0.00 50 1014.2
20260502231212 5 208 6.4 9.7 0.00 0.00 0.00 48 1013.8
20260502230630 5 234 3.2 3.2 0.00 0.00 0.00 50 1014.2
20260502230040 6 231 6.4 6.4 0.00 0.00 0.00 48 1013.8
20260502225434 6 251 6.4 6.4 0.00 0.00 0.00 48 1014.2
20260502224832 6 214 6.4 6.4 0.00 0.00 0.00 48 1013.8
20260502224226 6 260 6.4 9.7 0.00 0.00 0.00 47 1013.8
20260502223035 6 221 8.0 12.9 0.00 0.00 0.00 48 1013.8
20260502222421 6 255 1.6 3.2 0.00 0.00 0.00 49 1013.8
20260502221839 6 264 6.4 9.7 0.00 0.00 0.00 48 1013.8
20260502221254 6 202 6.4 6.4 0.00 0.00 0.00 47 1013.8
20260502220621 6 240 4.8 4.8 0.00 0.00 0.00 47 1013.8
20260502220030 6 230 4.8 4.8 0.00 0.00 0.00 46 1013.8
20260502215411 6 273 4.8 4.8 0.00 0.00 0.00 46 1013.8
20260502214822 6 236 6.4 9.7 0.00 0.00 0.00 44 1013.8
20260502213651 6 220 6.4 9.7 0.00 0.00 0.00 46 1013.8
20260502213041 6 292 4.8 4.8 0.00 0.00 0.00 46 1013.8
20260502212448 6 231 8.0 9.7 0.00 0.00 0.00 44 1013.8
20260502211814 6 230 6.4 9.7 0.00 0.00 0.00 45 1013.8
20260502211238 6 220 3.2 3.2 0.00 0.00 0.00 46 1013.5
20260502210627 7 261 6.4 11.3 0.00 0.00 0.00 43 1013.5
20260502210034 7 210 1.6 1.6 0.00 0.00 0.00 44 1013.8
20260502205414 7 233 6.4 6.4 0.00 0.00 0.00 45 1013.5